Weather in Sulaymaniyah

Iraq     35°33′35″N   45°25′48″E
temp.,
°C
wind,
m/s
gust,
m/s
humid.,
%
clouds,
%
prec.,
mm/h
press.,
hPa
HPBL,
m
15 april, thu
thu1500:00+9nnw22500 0.0 101720
03:00+8n22520 0.0 101814
06:00+8nne11540 0.0 101810
09:00+16nw10320 0.0 1017557
12:00+20w331958 0.0 10161468
15:00+21wnw5522100 0.0 10141692
18:00+16wnw344096 0.0 101551
21:00+11nw45454 0.0 101742
16 april, fri
fri1600:00+10n22480 0.0 101715
03:00+9nne22500 0.0 101711
06:00+9n11525 0.0 101710
09:00+17nnw12325 0.0 1017594
12:00+22wnw562517 0.0 10161970
15:00+22nw772892 0.0 10151743
18:00+17wnw4544100 0.0 101669
21:00+13n334988 0.0 101830
17 april, sat
sat1700:00+11nne225347 0.0 101610
03:00+11nne225294 0.0 101610
06:00+12nne2253100 0.0 101712
09:00+20n113385 0.0 1017446
12:00+25nw3323100 0.0 10151487
15:00+26wnw432125 0.0 10131939
18:00+19nw5741100 0.0 101595
21:00+16n334466 0.0 101626
18 april, sun
sun1800:00+15n33450 0.0 101617
03:00+14nne22450 0.0 101611
06:00+14n334713 0.0 101719
09:00+23w112999 0.0 1016445
12:00+27wnw452140 0.0 10141880
15:00+27wnw772222 0.0 10142071
18:00+22wnw4537100 0.0 101449
21:00+17n224435 0.0 101611
19 april, mon
mon1900:00+16nne114874 0.0 101611
03:00+15nne115161 0.0 101611
06:00+15ne11545 0.0 101611
09:00+23wsw003676 0.0 1015569
12:00+27wnw4426100 0.0 10131866
15:00+28wnw4423100 0.0 10122210
18:00+23wnw4439100 0.0 101245
21:00+19n224399 0.0 101318